www.pogodaiklimat.ru

Погода и климат >> Архив погоды >> Россия >> Нижегородская область >> Арзамас


ПОГОДА в Арзамасе

АРХИВ ПОГОДЫ в Арзамасе

Время (UTC), дата Ветер
(напр.,м/с)
 
Видим.   Явления Облачность Т
(С)
Тd
(С)
f
(%)
Тe
(С)
Тes
(С)
Комфортность P
(гПа)
Po
(гПа)
Тmin
(С)
Tmax
(С)
R
(мм)
R24
(мм)
S
(см)
15 14.11 ЮВ 2-4
{7}
4000 м 3/0
[Ci fib]
-4.6 -13.9 48 -8 -8 по сезону 1035.3 1019.2 -1.5
18 14.11 Ю 3-4
{6}
4000 м ясно -5.6 -13.9 52 -11 -11 прохладно 1035.7 1019.4
21 14.11 Ю 2-5
{5}
4000 м ясно -6.2 -13.1 58 -10 -10 прохладно 1036.9 1020.5
00 15.11 Ю 2-4
{5}
4000 м ясно -6.2 -13.1 58 -10 -10 прохладно 1037.4 1021.1
03 15.11 Ю 2-6
{6}
4000 м ясно -7.8 -13.3 65 -12 -12 холодно 1038.5 1022.1 -7.8
06 15.11 ЮВ 1-2
{6}
20 км ясно -8.8 -13.7 68 -11 -11 прохладно 1040.6 1024.1 -9.2
09 15.11 Ю 2-3
{4}
20 км ясно -2.3 -12.6 45 -5 -4 по сезону 1041.1 1025.0
12 15.11 Ю 3-5
{5}
20 км ясно +0.5 -15.9 28 -3 -3 по сезону 1041.7 1025.7
15 15.11 СВ 1-1
{4}
4000 м ясно -9.7 -13.8 72 -12 -12 холодно 1043.4 1026.8 +0.7
18 15.11 СВ 1-1
{2}
4000 м ясно -11.5 -14.4 79 -14 -14 очень
холодно
1044.1 1027.5
21 15.11 штиль 0
{1}
4000 м ясно -13.6 -15.6 85 -14 -14 холодно 1045.5 1028.6
00 16.11 штиль 0
{2}
4000 м ясно -15.0 -17.0 85 -15 -15 очень
холодно
1046.4 1029.5
03 16.11 штиль 0
{1}
4000 м ясно -15.8 -17.8 85 -16 -16 очень
холодно
1047.1 1030.0 -15.8
06 16.11 штиль 0
{1}
20 км ясно -14.8 -16.8 85 -15 -15 очень
холодно
1047.9 1031.0 -16.5
09 16.11 штиль 0
{2}
20 км ясно -4.2 -10.1 63 -5 -3 по сезону 1047.1 1030.8
12 16.11 З 1-1
{2}
20 км 3/0
[Ci fib]
-0.2 -9.8 48 -1 -1 по сезону 1046.0 1029.8
15 16.11 штиль 0
{3}
4000 м ясно -10.8 -13.6 80 -11 -11 прохладно 1040.2 1029.6 0.0
18 16.11 штиль 0
{1}
4000 м ясно -13.5 -15.5 85 -14 -14 холодно 1045.5 1028.6
21 16.11 штиль 0
{2}
4000 м ясно -13.2 -15.2 85 -13 -13 холодно 1044.4 1027.6
00 17.11 штиль 0
{1}
4000 м ясно -12.2 -14.2 85 -12 -12 прохладно 1042.5 1025.7
03 17.11 штиль 0
{1}
4000 м ясно -12.0 -14.0 85 -12 -12 прохладно 1040.1 1023.4 -13.6
06 17.11 штиль 0
{2}
20 км 10/0
[Ac und]
-6.2 -8.9 81 -7 -7 по сезону 1037.4 1021.1
09 17.11 ЮЗ 4-5
{6}
20 км 9/9 300 м
[Sc]
-0.4 -7.7 58 -5 -5 по сезону 1033.7 1017.8
12 17.11 З 4-5
{8}
20 км 10/10 300 м
[Sc]
+0.5 -7.3 56 -4 -4 по сезону 1031.4 1015.6
15 17.11 ЮЗ 3-5
{8}
4000 м 10/10 300 м
[St]
-0.4 -7.7 58 -5 -5 по сезону 1028.9 1013.1 +0.8
18 17.11 З 4-5
{7}
4000 м 10/10 300 м
[St]
+0.4 -6.6 59 -4 -4 по сезону 1025.5 1009.8
21 17.11 ЮЗ 4-6
{6}
4000 м 10/10 300 м
[St]
+0.9 -7.2 55 -4 -4 по сезону 1022.7 1007.1
00 18.11 ЮЗ 3-5
{6}
4000 м слабый снег 10/0
[As op]
-1.1 -2.9 88 -6 -6 по сезону 1021.1 1005.4
03 18.11 ЮЗ 3-5
{5}
4000 м {снег} 10/0
[As op]
-1.8 -3.0 91 -7 -7 по сезону 1019.9 1004.1 -1.8 1 1
06 18.11 ЮЗ 2-4
{5}
20 км слабый снег 10/0
[As op]
-1.4 -2.6 92 -5 -5 по сезону 1019.8 1004.1
09 18.11 ЮЗ 3-4
{6}
20 км слабый снег 10/0
[As op]
-0.5 -2.3 88 -5 -5 по сезону 1020.8 1005.1
12 18.11 ЮЗ 3-4
{5}
20 км {снег} 10/0
[As op]
-0.1 -2.2 86 -5 -5 по сезону 1021.8 1006.1
15 18.11 ЮЗ 2-3
{5}
4000 м {снег} 10/0
[As op]
-0.5 -2.3 88 -4 -4 по сезону 1022.9 1007.2 0.0 0.0
18 18.11 З 2-3
{5}
4000 м {снег} 10/0
[As op]
-0.5 -2.3 88 -4 -4 по сезону 1023.9 1008.2
21 18.11 ЮЗ 2-3
{4}
4000 м дымка 10/10 300 м
[St]
-0.7 -1.9 92 -5 -5 по сезону 1024.9 1009.2
00 19.11 З 2-3
{4}
4000 м 10/0
[As op]
-0.4 -1.3 94 -4 -4 по сезону 1025.6 1009.9
03 19.11 З 2-3
{4}
4000 м дымка 10/10 300 м
[St]
-0.3 -0.9 96 -4 -4 по сезону 1026.3 1010.6 -0.8 1
06 19.11 З 2-2
{4}
2000 м дымка 10/10 300 м
[St]
0.0 -0.3 98 -4 -4 по сезону 1027.3 1011.6
09 19.11 СЗ 2-3
{4}
20 км слабая морось 10/10 300 м
[St]
+0.9 +0.4 96 -3 -3 по сезону 1028.3 1012.6
12 19.11 СЗ 2-4
{5}
20 км в посл. час морось 10/10 300 м
[Sc]
+1.0 +0.2 94 -3 -3 по сезону 1028.8 1013.1
15 19.11 З 1-2
{5}
4000 м слабый снег 10/0
[As op]
+0.1 -0.8 94 -2 -2 по сезону 1029.1 1013.3 +1.1 0.0
18 19.11 СЗ 1-2
{3}
4000 м слабый снег 10/0
[As op]
+0.2 -0.4 96 -2 -2 по сезону 1029.0 1013.2
21 19.11 СВ 2-3
{6}
4000 м в посл. час снег 10/10 300 м
[Sc]
-0.3 -1.8 90 -4 -4 по сезону 1029.2 1013.4
00 20.11 С 2 4000 м 10/10 300 м
[]
-0.6 -2.1 90 1028.6 1012.8
03 20.11 С 2-4
{5}
4000 м 10/10 300 м
[Sc]
-1.0 -2.8 88 -5 -5 по сезону 1027.8 1012.1 -1.0 1 1
06 20.11 С 2-3
{4}
20 км 10/10 300 м
[Sc]
-1.3 -3.2 87 -5 -5 по сезону 1027.6 1011.9 -1.4
09 20.11 СЗ 3-4
{5}
20 км 10/10 300 м
[Sc]
-1.2 -4.1 81 -6 -6 по сезону 1026.9 1011.2
12 20.11 З 3-4
{6}
20 км 10/10 300 м
[Sc]
-2.2 -5.4 79 -7 -7 по сезону 1025.2 1009.3
15 20.11 З 4-6
{7}
4000 м 10/10 300 м
[St]
-3.1 -4.8 88 -9 -9 по сезону 1023.5 1007.9 -0.9
18 20.11 З 4-6
{7}
4000 м 10/10 300 м
[St]
-3.9 -5.4 89 -10 -10 по сезону 1022.2 1006.3
21 20.11 З 5-8
{8}
4000 м 10/10 300 м
[St]
-3.8 -5.3 89 -11 -11 прохладно 1020.5 1004.6
00 21.11 З 5-8
{9}
4000 м 10/10 300 м
[St]
-3.8 -5.6 87 -11 -11 прохладно 1018.7 1002.8
03 21.11 З 3-5
{8}
4000 м 10/0
[As op]
-3.5 -5.3 87 -9 -9 по сезону 1017.1 1001.3 -4.0 1
06 21.11 СЗ 3-5
{6}
20 км слабый снег 10/0
[As op]
-2.7 -4.6 87 -8 -8 по сезону 1016.5 1000.8
09 21.11 СЗ 4-6
{7}
4000 м слабый снег 10/0
[As op]
-0.9 -3.4 83 -7 -6 по сезону 1016.1 1000.5
12 21.11 СЗ 3-5
{8}
4000 м слабый снег 10/0
[As op]
-1.0 -4.2 79 -6 -6 по сезону 1016.0 1000.4

 

Местоположение метеостанции Арзамас (Нижегородская область, Россия): широта 55.37 долгота 43.78 высота над уровнем моря 124 м.

В архиве по умолчанию представлена погода в Арзамасе за последнюю неделю. Архивные данные за месяц целиком и за предыдущие месяцы, начиная с января 2011 года, Вы можете получить, выбрав интересующий диапазон дат из раскрывающегося списка и нажав кнопку "Ввод!".


*Определитесь, кто Вы:
робот инопланетянин человек

Внимание! Время в таблицах - всемирное. Для получения местного времени необходимо прибавить поправку, которая в Арзамасе равна 3 ч.

Смотрите также архив погоды в соседних городах и на ближайших метеорологических станциях:

Погода в Дальнем Константиново (Нижегородская область, Россия) (51 км)
Погода в Лукоянове (Нижегородская область, Россия) (59 км)
Погода в Павлово (Нижегородская область, Россия) (80 км)
Погода в Темникове (Мордовия, Россия) (89 км)
Погода в Нижнем Новгороде аэропорт (Нижегородская область, Россия) (95 км)
Погода в Нижнем Новгороде (Нижегородская область, Россия) (101 км)
Погода в Краснослободске (Мордовия, Россия) (105 км)
Погода в Выксе (Нижегородская область, Россия) (105 км)
Погода в Большом Болдино (Нижегородская область, Россия) (105 км)
Погода в Лысково (Нижегородская область, Россия) (106 км)

Пояснения к столбцам:

Ветер - указаны скорость ветра в м/с - средняя за 10 мин, порывы в срок и между сроками (в фигурных скобках) и направление, откуда дует ветер: С - северный, СВ - северо-восточный, В - восточный, ЮВ - юго-восточный, Ю - южный, ЮЗ - юго-западный, З - западный, СЗ - северо-западный.
Видимость - горизонтальная дальность видимости в метрах или километрах. При видимости от 1 до 10 км при отсутствии осадков обычно наблюдается дымка, при ухудшении видимости до 1 км и менее - туман. В сухую погоду видимость может ухудшаться дымом, пылью или мглою.
Явления - указаны атмосферные явления, наблюдавшиеся в срок или в последний час перед сроком; фигурными скобками обозначены явления, наблюдавшиеся между сроками (за 1-3 часа до срока); квадратными скобками обозначены град или гололедные отложения с указанием их диаметра в мм.
Облачность - указаны через наклонную черту общая и нижняя облачность в баллах и высота нижней границы облаков в метрах; квадратными скобками обозначены формы облаков: Ci - перистые, Cs - перисто-слоистые, Cc - перисто-кучевые, Ac - высококучевые, As - высокослоистые, Sc - слоисто-кучевые, Ns - слоисто-дождевые, Cu - кучевые, Cb - кучево-дождевые. Подробнее классификацию облаков см. в Атласе облаков (PDF).
T - Температура воздуха - температура, измеренная на высоте 2 м над землей.
Td - Температура точки росы - температура, при понижении до которой содержащийся в воздухе водяной пар достигнет насыщения.
f - Относительная влажность воздуха - влажноcть воздуха, измеренная на высоте 2 м над землей.
Te - Эффективная температура - температура, которую ощущает одетый по сезону человек в тени. Характеристика душности погоды. При расчете учитывается влияние влажности воздуха и скорости ветра на теплоощущения человека.
Tes - Эффективная температура на солнце - температура, которую ощущает человек, с поправкой на солнечный нагрев. Характеристика знойности погоды. Зависит от высоты солнца над горизонтом, облачности и скорости ветра. Ночью, в пасмурную погоду, а также при ветре 12 м/с и более поправка равна нулю.
P - Атмосферное давление - приведенное к уровню моря атмосферное давление.
Po - Атмосферное давление - измеренное на уровне метеостанции атмосферное давление.
Tmin - Минимальная температура - минимум температуры воздуха на высоте 2 м над землей.
Tmax - Максимальная температура - максимум температуры воздуха на высоте 2 м над землей.
R - Количество осадков - Количество выпавших осадков за период времени, мм. При наведении курсора мыши на число - период времени, за который выпало указанное количество осадков.
R24 - Количество осадков - Количество выпавших осадков за 24 часа, мм.
S - Снежный покров - Высота снежного покрова, см. При наведении курсора мыши на число - состояние снежного покрова и степень покрытия местности в баллах.